{"data":{"norad_id":41900,"epoch":"2026-05-24T23:26:56.154048Z","epoch_age_seconds":70248,"freshness":"FRESH","line1":"1 41900U 16081C   26144.97703882  .00000522  00000+0  11956-3 0  9994","line2":"2 41900  98.5480 138.7472 0024423  34.4126 325.8649 14.59756778500884","mean_motion":14.59756778,"eccentricity":0.0024423,"inclination_deg":98.548,"raan_deg":138.7472,"arg_perigee_deg":34.4126,"mean_anomaly_deg":325.8649,"bstar":0.00011956,"rev_number":50088,"period_min":98.64657055903,"perigee_km":676.68725826952,"apogee_km":711.23162053743,"semimajor_km":7072.0964394035,"source":"CELESTRAK","updated_at":"2026-05-25T13:37:55.657134Z"}}